Location: Bennemühlen
(52.5740°N, 9.7135°E)
Time: 16:38:57
(UTC+00:00)

SR - Pass Details

Date: 24 February 2026
Orbit: 572 x 848 km, 66.7° (Epoch: 8 March)

Event Time Altitude Azimuth Distance (km) Brightness Sun altitude
Exits shadow 02:35:25 25° 58° (ENE) 1,270 ? -33.6°
Drops below altitude 10° 02:37:28 10° 47° (NE) 2,027 ? -33.3°
Sets 02:39:53 0° 42° (NE) 2,984 ? -33.0°
